Overview Statistics Trail Chart Weather Telemetry Raw packets
 

This is the latest recevied weather packets stored in our database for station/object N6GPM. If no packets are shown the sender has not sent any weather packets the latest 10 day(s).

<< 8 9 10 11 12 13 14 >>
Time Temp. Humidity Pressure Rain* Wind** Luminosity Snow
1788620712 20° C 35% 1018.5 hPa 0 mm - 57 W/m² -
1788620403 20° C 35% 1018.5 hPa 0 mm - 58 W/m² -
1788620098 20° C 34% 1018.4 hPa 0 mm - 57 W/m² -
1788619797 20° C 36% 1018.2 hPa 0 mm - 107 W/m² -
1788619493 18.89° C 39% 1018.4 hPa 0 mm - 161 W/m² -
1788619191 18.33° C 43% 1018.4 hPa 0 mm - 150 W/m² -
1788618890 17.78° C 43% 1018.3 hPa 0 mm - 134 W/m² -
1788618585 17.78° C 43% 1018.2 hPa 0 mm - 117 W/m² -
1788618284 17.78° C 42% 1017.9 hPa 0 mm - 102 W/m² -
1788617980 17.78° C 42% 1018.1 hPa 0 mm - 85 W/m² -
1788617674 17.78° C 42% 1018.1 hPa 0 mm - 72 W/m² -
1788617371 17.78° C 43% 1018.1 hPa 0 mm - 61 W/m² -
1788617066 17.78° C 42% 1018.1 hPa 0 mm - 51 W/m² -
1788616764 17.78° C 43% 1018.1 hPa 0 mm - 42 W/m² -
1788616460 17.22° C 43% 1017.9 hPa 0 mm - 34 W/m² -
1788616156 17.22° C 35% 1017.8 hPa 0 mm - 28 W/m² -
1788615855 16.67° C 36% 1018 hPa 0 mm - 22 W/m² -
1788615549 16.67° C 37% 1017.9 hPa 0 mm - 16 W/m² -
1788615244 16.11° C 38% 1017.8 hPa 0 mm - 12 W/m² -
1788614943 16.11° C 38% 1017.8 hPa 0 mm - 7 W/m² -
1788614638 16.11° C 38% 1017.9 hPa 0 mm - 4 W/m² -
1788614333 16.67° C 39% 1017.7 hPa 0 mm - 2 W/m² -
1788614029 16.67° C 38% 1017.5 hPa 0 mm - 1 W/m² -
1788613724 16.67° C 37% 1017.6 hPa 0 mm - 0 W/m² -
1788613422 16.67° C 36% 1017.8 hPa 0 mm - 0 W/m² -

* Rain latest hour (hover to see other rain measurements)
** Current wind speed in m/s (hover to see current wind gust speed)